EW2353 Weather Reports


Display with metric or nautical units.
time (UTC)temp
F
wind
direction
speed
MPH
gust
MPH
rain 1hr
in
rain 24hr
in
rain mn
in
humidity
%
barometer
mb
20260831210839 90 252 1.0 6.0 0.00 0.00 0.00 64 1018.2
20260831210311 90 256 3.0 6.0 0.00 0.00 0.00 67 1018.3
20260831205843 90 236 2.0 6.0 0.00 0.00 0.00 66 1018.3
20260831205335 90 250 3.0 7.0 0.00 0.00 0.00 63 1018.4
20260831204810 91 243 3.0 6.0 0.00 0.00 0.00 63 1018.4
20260831204323 91 221 2.0 7.0 0.00 0.00 0.00 64 1018.4
20260831203816 91 250 3.0 7.0 0.00 0.00 0.00 63 1018.5
20260831203329 90 226 2.0 10.0 0.00 0.00 0.00 63 1018.4
20260831202842 90 262 4.0 10.0 0.00 0.00 0.00 62 1018.5
20260831202313 91 282 3.0 6.0 0.00 0.00 0.00 64 1018.6
20260831201826 91 221 3.0 7.0 0.00 0.00 0.00 64 1018.6
20260831201319 91 247 2.0 7.0 0.00 0.00 0.00 65 1018.7
20260831200812 91 279 2.0 6.0 0.00 0.00 0.00 63 1018.8
20260831200329 91 259 2.0 8.0 0.00 0.00 0.00 63 1018.8
20260831195822 91 284 3.0 8.0 0.00 0.00 0.00 60 1018.9
20260831195314 91 255 2.0 8.0 0.00 0.00 0.00 61 1018.9
20260831194827 91 282 4.0 8.0 0.00 0.00 0.00 62 1019.0
20260831194320 91 274 2.0 7.0 0.00 0.00 0.00 64 1019.2
20260831193833 91 234 2.0 7.0 0.00 0.00 0.00 63 1019.3
20260831193325 91 260 3.0 7.0 0.00 0.00 0.00 60 1019.3
20260831192818 91 289 2.0 7.0 0.00 0.00 0.00 64 1019.3
20260831192314 90 263 2.0 7.0 0.00 0.00 0.00 63 1019.4
20260831191828 90 281 4.0 7.0 0.00 0.00 0.00 62 1019.5
20260831191320 91 256 5.0 7.0 0.00 0.00 0.00 61 1019.4
20260831190813 91 265 2.0 8.0 0.00 0.00 0.00 61 1019.5
20260831190325 90 276 2.0 10.0 0.00 0.00 0.00 63 1019.5
20260831185839 90 241 6.0 12.0 0.00 0.00 0.00 66 1019.6
20260831185310 91 264 6.0 12.0 0.00 0.00 0.00 65 1019.5
20260831184823 90 223 2.0 8.0 0.00 0.00 0.00 65 1019.6
20260831184315 90 277 4.0 11.0 0.00 0.00 0.00 65 1019.6
20260831183812 90 262 6.0 9.0 0.00 0.00 0.00 66 1019.7
20260831183326 90 256 5.0 9.0 0.00 0.00 0.00 65 1019.7
20260831182818 89 282 3.0 11.0 0.00 0.00 0.00 67 1019.7
20260831182311 89 233 6.0 11.0 0.00 0.00 0.00 65 1019.8
20260831181824 89 240 5.0 10.0 0.00 0.00 0.00 66 1019.9
20260831181317 89 258 7.0 10.0 0.00 0.00 0.00 68 1019.9
20260831180809 89 256 5.0 10.0 0.00 0.00 0.00 67 1019.9
20260831180322 89 261 6.0 10.0 0.00 0.00 0.00 66 1019.9
20260831175819 89 244 5.0 12.0 0.00 0.00 0.00 68 1019.9
20260831175312 88 226 4.0 10.0 0.00 0.00 0.00 71 1020.0
20260831174825 88 262 2.0 8.0 0.00 0.00 0.00 71 1019.9
20260831174318 88 246 3.0 10.0 0.00 0.00 0.00 71 1019.9
20260831173831 88 264 5.0 11.0 0.00 0.00 0.00 67 1020.0
20260831173343 88 268 4.0 11.0 0.00 0.00 0.00 69 1020.1
20260831172814 89 243 6.0 11.0 0.00 0.00 0.00 70 1020.0
20260831172327 89 252 3.0 10.0 0.00 0.00 0.00 71 1020.1
20260831171840 88 281 3.0 10.0 0.00 0.00 0.00 72 1020.1
20260831171315 88 281 6.0 11.0 0.00 0.00 0.00 71 1020.2
20260831170827 88 302 6.0 12.0 0.00 0.00 0.00 70 1020.2
20260831170319 88 294 5.0 12.0 0.00 0.00 0.00 72 1020.2
20260831165813 87 246 5.0 9.0 0.00 0.00 0.00 73 1020.3
20260831165324 88 245 4.0 8.0 0.00 0.00 0.00 73 1020.3
20260831164817 87 250 6.0 8.0 0.00 0.00 0.00 74 1020.4
20260831164310 87 233 4.0 10.0 0.00 0.00 0.00 77 1020.3
20260831163823 87 274 6.0 10.0 0.00 0.00 0.00 74 1020.3
20260831163319 87 231 4.0 9.0 0.00 0.00 0.00 74 1020.4
20260831162812 86 236 5.0 11.0 0.00 0.00 0.00 74 1020.5
20260831162325 87 224 6.0 11.0 0.00 0.00 0.00 75 1020.5
20260831161817 86 271 5.0 8.0 0.00 0.00 0.00 76 1020.5
20260831161310 86 237 4.0 7.0 0.00 0.00 0.00 76 1020.4
20260831160823 85 240 4.0 6.0 0.00 0.00 0.00 77 1020.5
20260831160336 85 156 2.0 7.0 0.00 0.00 0.00 78 1020.5
20260831155827 85 279 4.0 9.0 0.00 0.00 0.00 77 1020.5
20260831155316 85 245 4.0 9.0 0.00 0.00 0.00 76 1020.5
20260831154812 85 243 2.0 7.0 0.00 0.00 0.00 79 1020.4
20260831154346 85 251 4.0 10.0 0.00 0.00 0.00 76 1020.3
20260831153817 85 200 6.0 10.0 0.00 0.00 0.00 78 1020.3
20260831153330 85 242 3.0 6.0 0.00 0.00 0.00 80 1020.3
20260831152822 84 249 2.0 8.0 0.00 0.00 0.00 80 1020.3
20260831152314 85 214 3.0 8.0 0.00 0.00 0.00 80 1020.3
20260831151828 84 231 2.0 6.0 0.00 0.00 0.00 81 1020.3
20260831151340 84 207 3.0 7.0 0.00 0.00 0.00 80 1020.3
20260831150812 83 249 4.0 7.0 0.00 0.00 0.00 84 1020.3
20260831150329 82 255 4.0 6.0 0.00 0.00 0.00 86 1020.3
20260831145822 82 243 3.0 5.0 0.00 0.00 0.00 84 1020.3
20260831145315 82 211 2.0 8.0 0.00 0.00 0.00 83 1020.3
20260831144828 82 215 4.0 8.0 0.00 0.00 0.00 83 1020.3
20260831144321 81 179 3.0 5.0 0.00 0.00 0.00 85 1020.2
20260831143813 81 232 2.0 5.0 0.00 0.00 0.00 88 1020.3
20260831143324 80 217 2.0 4.0 0.00 0.00 0.00 88 1020.2
20260831142817 79 219 2.0 5.0 0.00 0.00 0.00 88 1020.1
20260831142314 79 211 3.0 6.0 0.00 0.00 0.00 88 1020.1
20260831141827 78 219 3.0 6.0 0.00 0.00 0.00 90 1019.9
20260831141320 78 209 2.0 4.0 0.00 0.00 0.00 93 1020.0
20260831140812 77 211 2.0 4.0 0.00 0.00 0.00 92 1020.0
20260831140324 77 212 2.0 3.0 0.00 0.00 0.00 92 1020.0
20260831135837 76 215 1.0 3.0 0.00 0.00 0.00 92 1020.0
20260831135329 76 214 1.0 2.0 0.00 0.00 0.00 93 1020.0
20260831134822 76 221 0.0 1.0 0.00 0.00 0.00 94 1020.1
20260831134332 75 221 0.0 2.0 0.00 0.00 0.00 94 1020.2
20260831133844 75 145 0.0 3.0 0.00 0.00 0.00 94 1020.2
20260831133340 75 219 0.0 3.0 0.00 0.00 0.00 94 1020.1
20260831132811 75 213 0.0 1.0 0.00 0.00 0.00 95 1020.1
20260831132344 74 214 0.0 1.0 0.00 0.00 0.00 95 1020.0
20260831131835 74 214 0.0 1.0 0.00 0.00 0.00 95 1020.0
20260831131327 74 214 0.0 1.0 0.00 0.00 0.00 95 1020.1
20260831130840 74 214 0.0 1.0 0.00 0.00 0.00 95 1020.0
20260831130312 74 214 0.0 1.0 0.00 0.00 0.00 95 1019.9
20260831125824 73 214 0.0 1.0 0.00 0.00 0.00 95 1019.9
20260831125338 73 214 0.0 1.0 0.00 0.00 0.00 95 1019.8
20260831124849 73 212 0.0 1.0 0.00 0.00 0.00 96 1019.7
20260831124321 72 217 0.0 1.0 0.00 0.00 0.00 97 1019.7
20260831123817 72 218 0.0 1.0 0.00 0.00 0.00 97 1019.7
20260831123328 71 203 0.0 0.0 0.00 0.00 0.00 97 1019.7
20260831122820 71 198 0.0 0.0 0.00 0.00 0.00 97 1019.7
20260831122314 71 198 0.0 0.0 0.00 0.00 0.00 97 1019.7
20260831121826 70 198 0.0 0.0 0.00 0.00 0.00 97 1019.7
20260831121319 70 198 0.0 0.0 0.00 0.00 0.00 97 1019.7
20260831120812 70 198 0.0 0.0 0.00 0.00 0.00 97 1019.6
20260831120325 69 198 0.0 0.0 0.00 0.00 0.00 97 1019.6
20260831115822 69 198 0.0 0.0 0.00 0.00 0.00 97 1019.6
20260831115315 69 198 0.0 0.0 0.00 0.00 0.00 97 1019.5
20260831114827 69 198 0.0 0.0 0.00 0.00 0.00 97 1019.5
20260831114320 69 198 0.0 0.0 0.00 0.00 0.00 97 1019.6
20260831113812 68 198 0.0 0.0 0.00 0.00 0.00 97 1019.6
20260831113325 68 198 0.0 0.0 0.00 0.00 0.00 97 1019.6
20260831112817 68 198 0.0 0.0 0.00 0.00 0.00 97 1019.5
20260831112310 68 198 0.0 0.0 0.00 0.00 0.00 97 1019.5
20260831111826 68 198 0.0 0.0 0.00 0.00 0.00 97 1019.5
20260831111319 68 198 0.0 0.0 0.00 0.00 0.00 97 1019.4
20260831110812 68 198 0.0 0.0 0.00 0.00 0.00 97 1019.3
20260831110325 68 198 0.0 0.0 0.00 0.00 0.00 97 1019.3
20260831105815 68 198 0.0 0.0 0.00 0.00 0.00 97 1019.2
20260831105328 68 198 0.0 0.0 0.00 0.00 0.00 97 1019.1
20260831104821 68 198 0.0 0.0 0.00 0.00 0.00 97 1019.0
20260831104313 68 198 0.0 0.0 0.00 0.00 0.00 97 1019.0
20260831103810 69 198 0.0 0.0 0.00 0.00 0.00 97 1019.0
20260831103322 69 198 0.0 0.0 0.00 0.00 0.00 97 1019.0
20260831102815 69 198 0.0 0.0 0.00 0.00 0.00 97 1019.0
20260831102328 69 198 0.0 0.0 0.00 0.00 0.00 96 1019.0
20260831101821 69 198 0.0 0.0 0.00 0.00 0.00 96 1018.9
20260831101314 69 198 0.0 0.0 0.00 0.00 0.00 96 1018.8
20260831100826 69 198 0.0 0.0 0.00 0.00 0.00 96 1018.9
20260831100320 70 198 0.0 0.0 0.00 0.00 0.00 96 1018.8
20260831095816 70 198 0.0 0.0 0.00 0.00 0.00 96 1018.9
20260831095309 70 198 0.0 0.0 0.00 0.00 0.00 96 1018.8
20260831094822 70 198 0.0 0.0 0.00 0.00 0.00 96 1018.9
20260831094335 70 198 0.0 0.0 0.00 0.00 0.00 97 1018.8
20260831093826 70 198 0.0 0.0 0.00 0.00 0.00 97 1018.8
20260831093318 70 198 0.0 0.0 0.00 0.00 0.00 97 1018.9
20260831092811 70 198 0.0 0.0 0.00 0.00 0.00 97 1018.8
20260831092324 70 198 0.0 0.0 0.00 0.00 0.00 97 1018.8
20260831091820 70 198 0.0 0.0 0.00 0.00 0.00 97 1018.8
20260831091313 70 198 0.0 0.0 0.00 0.00 0.00 96 1018.7
20260831090826 70 198 0.0 0.0 0.00 0.00 0.00 96 1018.7
20260831090319 70 198 0.0 0.0 0.00 0.00 0.00 96 1018.7
20260831085812 70 198 0.0 0.0 0.00 0.00 0.00 96 1018.8
20260831085324 70 198 0.0 0.0 0.00 0.00 0.00 96 1018.8
20260831084817 70 198 0.0 0.0 0.00 0.00 0.00 96 1018.8
20260831084331 70 198 0.0 0.0 0.00 0.00 0.00 96 1018.7
20260831083822 70 198 0.0 0.0 0.00 0.00 0.00 96 1018.7
20260831083318 70 198 0.0 0.0 0.00 0.00 0.00 96 1018.6
20260831082811 70 198 0.0 0.0 0.00 0.00 0.00 96 1018.6
20260831082324 70 198 0.0 0.0 0.00 0.00 0.00 96 1018.5
20260831081816 70 198 0.0 0.0 0.00 0.00 0.00 96 1018.5
20260831081350 70 198 0.0 0.0 0.00 0.00 0.00 96 1018.4
20260831080821 70 198 0.0 0.0 0.00 0.00 0.00 96 1018.3
20260831080314 70 198 0.0 0.0 0.00 0.00 0.00 96 1018.1
20260831075825 70 198 0.0 0.0 0.00 0.00 0.00 96 1018.1
20260831075323 70 198 0.0 0.0 0.00 0.00 0.00 96 1018.0
20260831074836 70 198 0.0 0.0 0.00 0.00 0.00 96 1017.9
20260831074327 70 198 0.0 0.0 0.00 0.00 0.00 96 1018.0
20260831073820 69 198 0.0 0.0 0.00 0.00 0.00 95 1018.0
20260831073313 69 198 0.0 0.0 0.00 0.00 0.00 95 1018.1
20260831072826 69 198 0.0 0.0 0.00 0.00 0.00 95 1018.3
20260831072318 69 198 0.0 0.0 0.00 0.00 0.00 94 1018.3
20260831071811 70 198 0.0 0.0 0.00 0.00 0.00 94 1018.4
20260831071324 70 198 0.0 0.0 0.00 0.00 0.00 94 1018.4
20260831070820 70 198 0.0 0.0 0.00 0.00 0.00 95 1018.4
20260831070312 70 198 0.0 0.0 0.00 0.00 0.00 95 1018.3
20260831065825 70 198 0.0 0.0 0.00 0.00 0.00 95 1018.5
20260831065318 70 198 0.0 0.0 0.00 0.00 0.00 96 1018.5
20260831064811 70 198 0.0 0.0 0.00 0.00 0.00 96 1018.7
20260831064324 70 198 0.0 0.0 0.00 0.00 0.00 96 1018.8
20260831063816 70 198 0.0 0.0 0.00 0.00 0.00 96 1018.7
20260831063313 70 198 0.0 0.0 0.00 0.00 0.00 96 1018.8
20260831062826 70 198 0.0 0.0 0.00 0.00 0.00 96 1018.9
20260831062319 70 198 0.0 0.0 0.00 0.00 0.00 96 1019.1
20260831061831 70 198 0.0 0.0 0.00 0.00 0.00 96 1019.1
20260831061323 70 198 0.0 0.0 0.00 0.00 0.00 96 1019.0
20260831060836 70 198 0.0 0.0 0.00 0.00 0.00 96 1019.0
20260831060327 70 198 0.0 0.0 0.00 0.00 0.00 96 1019.1
20260831055840 70 198 0.0 0.0 0.00 0.00 0.00 96 1019.1
20260831055312 69 198 0.0 0.0 0.00 0.00 0.00 96 1019.2
20260831054825 69 198 0.0 0.0 0.00 0.00 0.00 96 1019.2
20260831054322 69 198 0.0 0.0 0.00 0.00 0.00 96 1019.2
20260831053835 69 198 0.0 0.0 0.00 0.00 0.00 96 1019.2
20260831053326 69 198 0.0 0.0 0.00 0.00 0.00 96 1019.2
20260831052840 69 198 0.0 0.0 0.00 0.00 0.00 96 1019.2
20260831052311 69 198 0.0 0.0 0.00 0.00 0.00 96 1019.2
20260831051824 68 198 0.0 0.0 0.00 0.00 0.00 96 1019.2
20260831051317 68 198 0.0 0.0 0.00 0.00 0.00 96 1019.3
20260831050810 68 198 0.0 0.0 0.00 0.00 0.00 96 1019.2
20260831050323 68 198 0.0 0.0 0.00 0.00 0.00 96 1019.1
20260831045819 68 198 0.0 0.0 0.00 0.00 0.00 96 1019.1
20260831045312 68 198 0.0 0.0 0.00 0.00 0.00 96 1019.1
20260831044844 68 198 0.0 0.0 0.00 0.00 0.00 95 1019.1
20260831044336 68 198 0.0 0.0 0.00 0.00 0.00 95 1019.1
20260831043828 68 198 0.0 0.0 0.00 0.00 0.00 95 1019.0
20260831043341 69 198 0.0 0.0 0.00 0.00 0.00 95 1019.1
20260831042813 69 198 0.0 0.0 0.00 0.00 0.00 95 1019.1
20260831042325 69 198 0.0 0.0 0.00 0.00 0.00 95 1019.2
20260831041818 69 198 0.0 0.0 0.00 0.00 0.00 95 1019.2
20260831041311 69 198 0.0 0.0 0.00 0.00 0.00 95 1019.2
20260831040828 69 198 0.0 0.0 0.00 0.00 0.00 96 1019.3
20260831040321 69 198 0.0 0.0 0.00 0.00 0.00 96 1019.2
20260831035813 69 198 0.0 0.0 0.00 0.00 0.00 96 1019.2
20260831035327 69 198 0.0 0.0 0.00 0.00 0.00 96 1019.2
20260831034819 69 198 0.0 0.0 0.00 0.00 0.00 96 1019.2
20260831034313 69 198 0.0 0.0 0.00 0.00 0.00 95 1019.2
20260831033824 69 198 0.0 0.0 0.00 0.00 0.00 95 1019.2
20260831033317 69 198 0.0 0.0 0.00 0.00 0.00 95 1019.2
20260831032814 69 198 0.0 0.0 0.00 0.00 0.00 95 1019.2
20260831032327 69 198 0.0 0.0 0.00 0.00 0.00 95 1019.3
20260831031819 69 198 0.0 0.0 0.00 0.00 0.00 95 1019.3
20260831031313 69 198 0.0 0.0 0.00 0.00 0.00 95 1019.2
20260831030825 69 198 0.0 0.0 0.00 0.00 0.00 95 1019.3
20260831030338 69 198 0.0 0.0 0.00 0.00 0.00 95 1019.3
20260831025810 70 198 0.0 0.0 0.00 0.00 0.00 95 1019.3
20260831025323 70 198 0.0 0.0 0.00 0.00 0.00 95 1019.3
20260831024819 70 198 0.0 0.0 0.00 0.00 0.00 95 1019.3
20260831024313 70 198 0.0 0.0 0.00 0.00 0.00 95 1019.3
20260831023826 70 198 0.0 0.0 0.00 0.00 0.00 95 1019.3
20260831023318 70 198 0.0 0.0 0.00 0.00 0.00 95 1019.2
20260831022812 70 198 0.0 0.0 0.00 0.00 0.00 95 1019.2
20260831022344 70 198 0.0 0.0 0.00 0.00 0.00 95 1019.3
20260831021816 71 198 0.0 0.0 0.00 0.00 0.00 95 1019.1
20260831021329 71 198 0.0 0.0 0.00 0.00 0.00 95 1019.2
20260831020821 71 198 0.0 0.0 0.00 0.00 0.00 95 1019.2
20260831020319 71 198 0.0 0.0 0.00 0.00 0.00 95 1019.2
20260831015811 71 198 0.0 0.0 0.00 0.00 0.00 95 1019.1
20260831015344 71 198 0.0 0.0 0.00 0.00 0.00 95 1019.1
20260831014835 71 198 0.0 0.0 0.00 0.00 0.00 94 1019.1
20260831014327 71 198 0.0 0.0 0.00 0.00 0.00 94 1019.0
20260831013820 72 198 0.0 0.0 0.00 0.00 0.00 95 1019.0
20260831013312 72 198 0.0 0.0 0.00 0.00 0.00 94 1019.0
20260831012824 72 198 0.0 0.0 0.00 0.00 0.00 94 1018.9
20260831012317 72 198 0.0 0.0 0.00 0.00 0.00 94 1018.8
20260831011814 72 198 0.0 0.0 0.00 0.00 0.00 93 1018.8
20260831011327 72 198 0.0 0.0 0.00 0.00 0.00 93 1018.8
20260831010820 73 198 0.0 0.0 0.00 0.00 0.00 93 1018.9
20260831010333 73 198 0.0 0.0 0.00 0.00 0.00 93 1019.0
20260831005845 73 198 0.0 0.0 0.00 0.00 0.00 92 1019.0
20260831005316 73 198 0.0 0.0 0.00 0.00 0.00 92 1018.8
20260831004809 74 198 0.0 0.0 0.00 0.00 0.00 91 1018.7
20260831004322 74 198 0.0 0.0 0.00 0.00 0.00 91 1018.6
20260831003814 74 198 0.0 0.0 0.00 0.00 0.00 90 1018.6
20260831003331 75 198 0.0 0.0 0.00 0.00 0.00 89 1018.5
20260831002823 75 198 0.0 0.0 0.00 0.00 0.00 89 1018.5
20260831002315 76 198 0.0 0.0 0.00 0.00 0.00 88 1018.4
20260831001827 76 198 0.0 0.0 0.00 0.00 0.00 88 1018.5
20260831001321 77 198 0.0 0.0 0.00 0.00 0.00 88 1018.4
20260831000813 77 198 0.0 0.0 0.00 0.00 0.00 87 1018.5
20260831000326 78 198 0.0 0.0 0.00 0.00 0.00 85 1018.4
20260830235818 79 198 0.0 0.0 0.00 0.00 0.00 84 1018.5
20260830235315 79 198 0.0 0.0 0.00 0.00 0.00 84 1018.5
20260830234827 80 198 0.0 0.0 0.00 0.00 0.00 83 1018.5
20260830234321 81 198 0.0 0.0 0.00 0.00 0.00 81 1018.4
20260830233813 81 198 0.0 0.0 0.00 0.00 0.00 80 1018.3
20260830233325 82 198 0.0 0.0 0.00 0.00 0.00 78 1018.3
20260830232818 83 198 0.0 0.0 0.00 0.00 0.00 77 1018.3
20260830232311 84 198 0.0 0.0 0.00 0.00 0.00 76 1018.4
20260830231824 84 198 0.0 0.0 0.00 0.00 0.00 72 1018.3
20260830231320 85 198 0.0 0.0 0.00 0.00 0.00 71 1018.3
20260830230814 86 198 0.0 0.0 0.00 0.00 0.00 70 1018.3
20260830230346 86 198 0.0 0.0 0.00 0.00 0.00 69 1018.2
20260830225818 85 198 0.0 0.0 0.00 0.00 0.00 70 1018.0
20260830225332 86 198 0.0 1.0 0.00 0.00 0.00 66 1018.0
20260830224823 86 207 0.0 1.0 0.00 0.00 0.00 69 1018.0
20260830224316 85 207 0.0 1.0 0.00 0.00 0.00 70 1017.9
20260830223849 85 207 0.0 1.0 0.00 0.00 0.00 69 1017.9
20260830223321 84 207 0.0 3.0 0.00 0.00 0.00 69 1017.9
20260830222813 84 226 0.0 4.0 0.00 0.00 0.00 67 1017.9
20260830222310 85 219 0.0 4.0 0.00 0.00 0.00 67 1017.9
20260830221823 85 215 0.0 4.0 0.00 0.00 0.00 67 1018.0
20260830221315 86 219 1.0 4.0 0.00 0.00 0.00 65 1018.1
20260830220828 86 215 0.0 4.0 0.00 0.00 0.00 64 1018.2
20260830220321 85 218 1.0 4.0 0.00 0.00 0.00 63 1018.2
20260830215813 85 208 1.0 5.0 0.00 0.00 0.00 66 1018.1
20260830215326 84 195 2.0 5.0 0.00 0.00 0.00 66 1018.0
20260830214840 84 182 1.0 4.0 0.00 0.00 0.00 66 1018.0
20260830214331 84 215 1.0 4.0 0.00 0.00 0.00 66 1018.0
20260830213827 84 207 2.0 4.0 0.00 0.00 0.00 66 1018.0
20260830213320 84 210 1.0 5.0 0.00 0.00 0.00 66 1018.2
20260830212812 85 244 0.0 6.0 0.00 0.00 0.00 64 1018.3
20260830212346 85 223 0.0 6.0 0.00 0.00 0.00 63 1018.2
20260830211817 86 238 1.0 5.0 0.00 0.00 0.00 63 1018.2
20260830211310 86 238 1.0 5.0 0.00 0.00 0.00 64 1018.2